Terminal Aerodrome Forecast
Issued by NWS

Home | Current Version | Previous Version | Text Only | Print | Product List | Glossary On
Versions: 1 2 3 4 5 6 7 8 9 10 11 12 13 14 15 16 17
488
FTUS42 KTBW 240540
TAFPIE
TAF
KPIE 240540Z 2406/2506 35009KT P6SM BKN025
     FM240900 01006KT 6SM BR SCT005 BKN025
     FM241400 04008KT P6SM SCT020
     FM241900 34006KT P6SM SCT040=

USA.gov is the U.S. government's official web portal to all federal, state and local government web resources and services.